Wetbulb
46.68 46.99 47.60 48.28 48.47 48.24 48.16 48.72 49.45 49.55 49.18 48.67 48.93 49.64 50.75 52.37 53.44 54.26 54.98 55.87 56.46 57.03 57.52 57.94 57.94 57.48 56.56 55.57 55.34 55.29 55.30 54.94 54.53 54.35 54.12 53.44 52.77 52.10 51.42 50.92 50.92 51.29 51.92 52.47 52.42 52.33 52.11 51.52 51.56 51.07 50.30 49.57 48.71 47.76 47.13 47.13 47.94 48.21 48.26 48.44 49.07 49.93 50.79 51.47 50.66 50.70 51.29 52.01 52.65
47.88 48.15 48.72 49.83 49.71 49.39 49.35 49.79 50.20 50.17 50.00 49.84 50.12 50.40 51.02 52.27 53.46 54.19 54.75 55.34 56.16 56.65 56.95 57.07 56.47 55.97 55.62 55.35 54.98 54.76 54.44 54.12 53.67 53.26 52.63 51.60 51.05 50.56 50.15 49.88 49.70 49.84 50.06 50.11 50.29 50.52 50.39 49.43 50.16 50.38 50.25 49.53 49.48 49.25 48.80 48.08 48.48 48.80 48.75 47.71 47.40 47.35 47.71 48.35 48.39 48.58 48.94 49.57 49.84
48.69 48.87 49.13 49.35 49.30 49.81 50.49 51.06 50.79 50.20 49.86 50.27 50.80 51.21 51.87 52.81 53.70 54.47 55.06 55.43 55.74 56.21 56.44 56.57 56.23 55.64 55.21 54.98 54.94 54.66 54.26 53.71 53.08 52.59 52.01 51.33 50.56 49.93 49.48 49.16 48.71 48.75 48.89 48.84 48.62 48.66 48.57 48.12 49.34 49.97 50.11 49.93 49.16 48.89 48.48 47.53 48.57 48.71 47.90 46.27 45.45 45.04 45.09 45.63 44.82 44.95 45.63 46.54 46.49
49.49 49.89 50.11 50.16 49.99 50.09 50.39 50.99 50.31 49.87 49.96 51.00 50.99 51.52 52.27 53.25 53.43 53.76 54.18 54.34 54.72 55.05 55.30 55.25 54.89 54.37 53.96 53.57 53.31 53.13 53.08 52.90 52.54 52.41 52.27 51.91 51.33 50.79 50.29 49.61 48.98 48.44 47.99 47.67 47.40 47.17 47.17 47.31 48.44 48.62 48.17 47.49 47.49 47.53 47.35 46.63 46.49 46.36 46.04 45.31 45.00 44.73 44.59 44.82 44.50 44.64 44.87 45.14 44.64
49.63 49.94 50.16 50.31 49.78 49.92 50.14 49.92 49.78 49.96 50.31 51.06 51.52 52.00 52.37 52.57 52.60 52.61 52.79 53.53 53.48 53.48 53.43 53.42 53.29 52.89 52.38 51.84 51.36 51.23 51.19 51.14 51.59 51.68 51.59 51.54 51.46 51.33 51.15 50.79 50.52 49.93 49.12 48.08 47.44 47.49 47.67 47.53 48.80 49.25 49.03 48.30 48.35 47.67 46.63 45.32 45.36 45.50 45.63 45.63 45.41 45.18 44.91 44.77 44.23 44.05 44.05 44.05 43.33
49.10 49.28 49.51 49.78 49.38 49.46 49.73 49.78 49.29 49.28 49.75 50.09 50.02 50.20 50.65 51.39 51.66 51.81 51.92 51.93 51.68 51.63 51.81 52.10 51.98 51.71 51.28 50.76 50.50 50.24 49.92 49.52 49.61 49.70 49.88 50.38 50.51 50.55 50.60 50.65 50.60 50.29 49.79 48.89 48.39 48.75 49.34 49.39 49.70 49.66 49.34 48.94 48.30 47.17 46.00 45.27 45.36 45.36 45.23 44.96 44.32 43.69 43.14 42.82 42.37 42.28 42.38 42.52 41.75
48.47 48.74 48.88 48.88 48.70 48.88 48.87 48.65 48.74 48.83 48.91 48.99 48.47 48.25 48.61 49.15 49.51 49.69 49.97 50.56 50.65 50.73 50.95 51.21 50.63 50.32 50.05 49.52 49.20 49.02 48.71 48.44 48.21 48.08 48.39 49.38 49.61 49.78 49.92 49.92 49.88 49.75 49.43 48.93 48.93 49.16 48.93 47.49 49.16 49.48 49.21 48.93 48.17 47.35 46.45 45.73 44.60 43.92 43.51 43.19 42.78 42.24 41.65 41.24 40.29 39.93 39.71 39.49 40.48
47.93 47.93 47.98 47.89 47.89 47.71 47.53 47.53 47.98 48.20 48.19 48.11 47.62 47.22 47.04 47.40 47.67 48.07 48.61 49.20 49.43 49.74 49.87 49.92 49.02 48.75 48.71 48.57 48.35 48.08 47.85 47.67 47.85 47.76 47.85 48.30 48.71 49.02 49.29 49.29 49.02 48.71 48.39 48.30 48.30 48.21 47.99 47.49 48.30 48.30 47.99 47.80 46.99 45.73 44.37 42.98 41.84 41.52 41.70 41.97 41.83 41.47 40.74 39.84 38.61 38.62 39.21 39.81 39.94
46.99 46.90 46.90 47.08 47.04 46.99 46.81 46.90 46.99 46.99 46.95 46.68 46.54 46.50 46.63 46.86 46.81 47.04 47.53 47.89 48.12 48.30 48.34 48.39 47.80 47.71 47.80 47.94 47.89 47.89 47.94 47.98 48.03 48.12 48.12 47.98 48.25 48.52 48.75 48.79 48.39 47.89 47.40 47.13 46.95 46.99 47.22 47.62 47.35 47.04 46.63 46.27 45.18 43.87 42.53 41.45 40.54 40.62 41.25 41.57 41.56 41.38 40.61 38.67 38.49 38.72 39.17 39.63 38.85
45.65 45.74 45.83 46.10 45.83 45.96 46.23 46.19 46.23 46.10 45.87 45.69 45.60 45.91 46.54 47.13 46.59 46.41 46.54 46.90 46.81 46.63 46.45 46.36 46.27 46.45 46.86 47.31 48.07 48.42 48.63 48.46 48.33 48.15 48.07 48.03 47.89 47.85 47.76 47.89 47.71 47.35 46.86 46.32 45.77 45.19 45.05 45.77 45.86 45.64 45.14 44.60 43.43 42.48 41.68 41.14 40.49 40.89 41.48 41.52 41.25 40.80 40.35 40.08 39.45 38.81 38.27 37.86 37.50
44.39 44.66 44.97 45.20 44.79 45.20 45.60 45.38 45.56 45.47 45.33 45.06 44.97 45.15 45.46 45.91 45.46 45.37 45.50 45.46 45.33 44.92 44.47 44.52 44.61 44.83 45.24 45.64 46.73 46.99 46.95 46.90 46.68 46.50 46.32 46.19 46.10 46.10 46.05 46.19 46.19 46.01 45.78 45.33 44.92 44.51 44.33 44.56 44.47 44.20 43.97 43.83 43.30 42.68 42.14 41.69 41.27 41.13 41.26 41.08 40.58 39.87 39.23 38.73 38.37 37.78 37.37 37.32 37.37
43.55 43.68 43.85 44.03 44.12 44.48 44.79 44.66 44.75 44.61 44.34 44.11 44.16 44.29 44.33 44.42 44.20 44.20 44.34 44.38 44.20 43.84 43.53 43.35 43.49 43.53 43.71 44.21 44.49 44.58 44.63 44.64 44.27 44.23 44.18 44.14 44.23 44.36 44.41 44.45 44.54 44.54 44.49 44.48 44.43 44.20 43.88 43.70 43.48 43.17 42.98 43.02 42.98 42.63 42.19 41.70 41.24 40.83 40.46 40.10 39.75 39.12 38.39 37.76 37.48 37.11 36.83 36.74 37.37
42.76 42.93 43.05 43.22 43.49 43.71 43.76 43.84 43.75 43.48 43.25 43.12 43.25 43.48 43.57 43.57 43.62 43.66 43.62 43.57 43.57 43.44 43.26 42.99 42.91 42.87 42.96 43.33 43.65 43.79 43.84 43.98 43.24 42.81 42.71 42.95 43.24 43.30 43.34 43.34 43.33 43.33 43.46 43.68 43.72 43.67 43.39 42.99 42.59 42.27 41.95 41.73 41.68 41.60 41.43 41.12 40.62 40.12 39.53 39.11 38.76 38.31 37.77 37.42 37.27 36.99 36.75 36.52 36.88
42.00 42.12 42.20 42.41 42.73 42.90 42.95 42.76 42.81 42.58 42.31 42.12 42.35 42.44 42.67 42.85 43.62 43.72 43.46 42.99 42.90 42.81 42.64 42.50 42.88 42.98 43.08 43.33 43.46 43.09 42.85 43.09 42.85 42.62 42.53 42.72 42.72 42.68 42.58 42.44 42.35 42.34 42.42 42.56 42.69 42.61 42.38 42.15 41.88 41.56 41.10 40.71 40.52 40.43 40.35 40.08 39.67 39.12 38.66 38.29 38.03 37.72 37.36 37.12 36.99 36.76 36.52 36.34 36.29
41.19 41.22 41.34 41.56 41.73 41.87 41.95 41.72 41.95 41.81 41.45 41.40 41.58 41.76 42.08 42.62 43.46 43.74 43.43 42.46 42.70 42.89 42.90 42.35 42.77 43.00 43.10 43.30 43.16 42.94 42.71 42.70 42.52 42.42 42.33 42.29 42.15 42.05 41.96 41.77 41.58 41.44 41.44 41.35 41.26 41.17 41.09 41.00 40.83 40.60 40.31 39.85 39.62 39.49 39.36 39.18 38.81 38.49 38.21 37.97 37.79 37.51 37.19 36.96 36.79 36.25 35.75 35.38 35.60
40.33 40.44 40.49 40.66 40.61 40.69 40.73 40.81 41.22 41.09 40.90 40.90 41.08 41.22 41.45 42.04 42.74 43.11 42.88 42.20 43.05 43.47 43.43 43.02 42.79 42.84 42.98 43.22 43.00 42.78 42.55 42.36 42.00 41.72 41.53 41.43 41.34 41.33 41.24 41.14 40.83 40.65 40.52 40.24 40.04 39.94 39.81 39.91 39.74 39.65 39.46 39.17 38.90 38.76 38.58 38.41 38.27 38.08 37.85 37.71 37.62 37.47 37.20 36.84 36.11 35.29 34.61 34.38 35.15
39.54 39.54 39.67 39.71 39.53 39.43 39.47 39.68 40.18 40.32 40.36 40.36 40.60 41.00 41.46 41.89 42.54 42.86 42.91 42.60 42.80 42.81 42.72 42.72 42.72 42.63 42.58 42.63 42.42 42.06 41.66 41.33 41.10 40.86 40.57 40.29 40.02 40.06 40.19 40.28 40.15 39.95 39.72 39.20 39.04 38.95 38.87 38.91 39.01 38.93 38.79 38.51 38.37 38.18 38.05 38.05 37.96 37.81 37.71 37.66 37.62 37.43 37.07 36.43 35.15 34.24 33.88 34.29 35.33
38.59 38.50 38.63 38.77 38.63 38.58 38.53 38.57 38.97 39.24 39.56 39.83 40.30 40.91 41.56 42.04 42.22 42.40 42.58 42.63 42.28 41.97 41.73 41.78 41.97 41.83 41.70 41.56 41.52 41.33 40.74 39.98 39.79 39.60 39.27 38.95 38.54 38.54 38.91 39.42 39.40 39.29 39.01 38.53 38.32 38.28 38.24 38.14 38.27 38.36 38.27 38.13 38.04 37.89 37.75 37.75 37.77 37.72 37.62 37.62 37.61 37.34 36.79 36.02 35.11 34.74 34.88 35.34 35.60
37.64 37.69 37.82 37.91 37.95 38.22 38.44 38.71 38.71 38.99 39.40 39.73 40.24 40.87 41.39 41.62 41.62 41.66 41.75 41.89 41.84 41.24 40.73 40.58 40.73 40.74 40.74 40.79 40.76 40.70 40.37 39.56 39.24 39.05 38.88 38.65 38.36 38.32 38.38 38.38 38.31 38.22 38.12 38.05 38.05 38.02 37.93 37.70 37.43 37.48 37.67 37.95 37.91 37.77 37.67 37.49 37.42 37.36 37.31 37.26 37.25 37.20 36.98 36.61 36.34 36.25 36.25 36.16 35.29
37.06 37.24 37.37 37.42 37.37 37.73 38.18 38.54 38.63 38.95 39.37 39.95 40.24 40.53 40.81 41.09 41.13 41.08 41.07 41.12 41.26 40.88 40.46 40.32 40.28 40.19 40.10 40.11 40.11 40.07 39.93 39.70 39.29 39.06 38.88 38.73 38.35 38.15 38.01 37.72 37.49 37.31 37.35 37.76 38.15 38.18 38.06 37.82 37.48 37.44 37.51 37.52 37.47 37.28 37.00 36.90 36.74 36.68 36.63 36.63 36.71 36.66 36.75 36.75 36.66 36.56 36.38 36.06 35.01
37.23 37.75 38.22 38.02 37.98 38.06 38.28 38.54 38.83 39.19 39.48 40.01 40.26 40.45 40.50 40.63 40.71 40.62 40.65 40.83 40.93 40.76 40.57 40.34 40.16 40.01 39.92 39.78 39.65 39.57 39.49 39.67 39.32 39.05 38.90 38.71 38.37 38.12 37.97 37.82 37.58 37.22 37.27 37.93 37.94 37.86 37.82 37.69 37.51 37.21 37.13 36.86 36.75 36.43 36.19 35.94 35.74 35.67 35.70 35.80 35.86 35.98 36.12 36.30 36.34 36.38 36.29 36.19 35.42
38.43 39.13 39.62 39.01 38.97 39.06 39.20 39.53 39.76 39.78 39.77 40.01 40.31 40.41 40.36 40.35 40.39 40.43 40.51 40.56 40.51 40.28 40.04 39.89 39.81 39.73 39.59 39.50 39.33 39.25 39.30 39.44 39.23 39.06 38.97 38.74 38.49 38.35 38.15 37.80 37.32 37.13 37.09 36.96 36.33 36.11 36.27 36.66 36.61 36.34 35.91 35.47 35.47 35.14 34.66 34.14 34.17 34.39 34.61 34.80 34.96 35.13 35.31 35.45 35.63 35.85 35.98 36.20 36.19
39.89 40.05 40.01 39.95 39.79 39.90 39.90 39.61 39.51 39.45 39.58 40.07 40.18 40.23 40.22 40.21 40.22 40.35 40.35 40.26 40.16 39.87 39.67 39.61 39.53 39.50 39.38 39.30 39.22 39.08 38.94 38.94 39.01 39.01 38.97 38.78 38.36 37.45 36.40 35.47 35.45 35.96 36.46 36.38 35.18 34.37 34.39 35.39 35.43 35.05 34.29 33.60 33.53 33.22 32.92 32.66 33.54 33.82 33.73 33.76 33.80 33.84 33.88 33.97 34.12 34.28 34.51 34.85 35.49
40.00 40.01 40.01 39.76 39.66 39.44 39.22 38.98 39.29 39.63 39.87 39.95 40.08 40.08 40.08 40.08 40.05 40.00 39.92 39.78 39.64 39.47 39.41 39.41 39.40 39.39 39.31 39.29 39.24 39.06 38.87 38.72 38.79 38.95 39.04 39.00 38.54 37.31 35.71 34.43 34.43 35.16 36.26 37.19 36.38 35.62 35.17 35.44 34.71 34.21 33.91 33.61 33.15 32.40 31.70 31.39 32.26 32.59 32.68 32.65 32.56 32.47 32.43 32.40 32.52 32.57 32.70 33.01 33.82
39.39 39.52 39.71 39.53 39.36 39.10 38.99 39.04 39.59 39.70 39.78 39.81 39.86 39.89 39.89 39.89 39.81 39.69 39.51 39.34 39.25 39.17 39.26 39.26 39.35 39.38 39.37 39.32 38.98 38.74 38.63 38.86 39.01 39.08 39.25 39.43 39.43 39.11 38.61 38.10 37.46 37.68 38.48 39.59 39.91 39.51 38.64 37.30 35.49 34.02 33.07 32.83 32.40 31.81 31.16 30.41 30.60 31.23 31.83 31.82 31.69 31.51 31.33 31.30 31.31 31.29 31.39 31.52 32.03
39.59 39.54 39.63 39.73 39.57 39.40 39.21 39.34 39.58 39.59 39.62 39.63 39.62 39.61 39.57 39.61 39.57 39.48 39.31 39.19 39.15 39.21 39.18 39.23 39.40 39.57 39.68 39.43 39.09 38.84 38.88 39.16 39.22 39.38 39.60 39.73 39.82 39.95 40.00 39.99 39.96 40.00 40.26 41.03 41.05 40.82 40.02 39.11 37.55 35.03 32.45 30.52 30.68 30.81 30.86 30.81 30.74 30.78 30.89 31.10 31.12 30.99 30.85 30.66 30.52 30.54 30.61 30.80 30.89
39.65 39.60 39.60 39.69 39.62 39.37 39.27 39.45 39.44 39.35 39.39 39.34 39.25 39.21 39.21 39.26 39.21 39.14 39.05 39.10 39.21 39.26 39.31 39.49 39.71 39.98 40.10 39.58 39.39 39.20 39.15 39.12 38.98 39.01 39.08 39.20 39.38 39.60 39.87 40.00 40.18 40.43 40.96 41.58 41.42 41.07 40.43 39.66 38.48 36.47 33.72 30.36 29.84 30.01 30.46 30.65 30.72 30.63 30.50 30.53 30.53 30.45 30.32 30.04 29.90 29.99 30.11 30.03 30.02
39.25 39.31 39.31 39.31 39.21 39.15 39.18 39.22 39.17 39.07 39.02 39.02 38.98 38.98 38.99 38.98 38.92 38.90 38.85 39.03 39.22 39.40 39.43 39.60 39.76 39.85 39.62 39.15 38.83 38.60 38.38 38.31 38.40 38.49 38.75 38.95 39.21 39.29 39.46 39.77 40.10 40.66 41.18 41.45 41.26 40.90 40.31 39.67 38.59 37.30 35.24 32.04 29.89 29.52 30.03 30.25 30.45 30.23 29.96 29.83 29.67 29.41 29.19 28.97 29.00 28.99 29.02 28.95 28.84
39.01 39.00 38.92 38.88 38.78 38.86 38.94 38.93 38.88 38.88 38.88 38.89 38.94 38.94 38.98 38.92 38.95 38.95 38.95 38.90 38.97 39.00 39.07 39.13 39.18 38.96 38.59 38.09 37.82 37.49 37.15 36.87 37.31 37.81 38.22 38.72 38.85 38.98 39.15 39.28 39.84 40.57 41.14 41.28 40.96 40.51 39.93 39.25 38.52 37.51 36.09 33.85 30.68 29.30 29.13 29.40 29.28 29.15 29.10 29.12 28.59 28.15 27.74 27.52 27.50 27.35 27.19 27.12 27.12
38.82 38.75 38.64 38.54 38.53 38.61 38.66 38.70 38.84 38.89 38.95 39.00 39.04 38.98 39.01 38.92 38.79 38.54 38.36 38.21 38.12 38.14 38.22 38.28 38.11 37.79 37.43 37.26 37.10 37.04 37.02 37.23 37.50 37.76 38.03 38.36 38.54 38.62 38.84 39.20 39.53 40.12 40.69 40.85 40.52 40.07 39.44 38.82 38.08 37.21 36.07 34.39 31.05 28.36 26.78 26.82 26.56 26.53 26.48 26.23 25.37 24.93 24.66 24.66 24.79 24.93 25.02 25.24 25.80
38.70 38.66 38.59 38.45 38.42 38.50 38.55 38.69 38.85 38.95 39.00 39.13 39.07 38.93 38.70 38.35 38.02 37.78 37.59 37.44 37.37 37.42 37.35 36.90 36.79 36.69 36.60 36.70 36.61 36.83 37.14 37.50 37.77 37.91 38.10 38.15 38.33 38.26 38.25 38.58 39.00 39.59 40.15 40.32 40.03 39.50 38.92 38.33 37.61 36.75 35.74 34.42 31.08 27.55 25.12 24.82 24.41 24.01 23.64 23.32 23.64 24.27 24.98 25.82 26.09 26.14 26.05 26.01 26.47
38.48 38.34 38.30 38.26 38.28 38.47 38.67 38.82 39.01 39.10 39.14 39.10 38.83 38.46 38.01 37.55 37.37 37.27 37.09 36.95 36.74 36.48 36.17 35.58 35.80 35.89 35.94 35.94 36.01 36.28 36.68 36.90 37.18 37.40 37.54 37.54 37.63 37.72 37.81 38.22 38.46 39.06 39.58 39.79 39.51 38.98 38.44 37.89 37.16 36.36 35.38 34.15 30.66 25.93 22.59 23.45 22.65 22.20 21.98 21.89 23.08 24.46 25.76 26.59 26.70 26.68 26.51 26.49 27.11
38.21 38.16 38.07 37.97 38.06 38.17 38.36 38.51 38.62 38.71 38.70 38.53 38.17 37.79 37.37 37.09 36.86 36.68 36.60 36.44 36.04 35.71 35.43 35.25 35.26 35.26 35.30 35.43 35.42 35.59 35.86 36.14 36.55 36.97 37.28 37.36 37.27 37.36 37.54 37.76 37.96 38.68 39.18 39.27 38.99 38.50 37.93 37.42 36.72 35.89 34.96 33.57 29.19 24.46 21.41 22.00 21.75 21.39 21.20 20.93 21.62 22.62 23.64 24.25 24.08 23.70 23.08 22.62 24.72
37.89 37.80 37.70 37.70 37.65 37.70 37.74 37.84 37.90 37.87 37.82 37.68 37.49 37.27 36.91 36.63 36.27 36.01 35.92 35.85 35.50 35.22 34.98 34.89 34.80 34.75 34.80 34.89 34.88 35.05 35.28 35.51 35.47 35.70 36.06 36.33 36.56 36.78 36.86 36.90 37.40 38.21 38.78 38.58 38.31 37.87 37.35 36.75 36.05 35.24 34.17 32.65 26.66 22.58 20.59 20.74 20.29 19.85 19.45 19.18 19.00 18.55 18.11 17.75 17.95 18.05 18.11 18.24 19.42
37.44 37.35 37.21 37.20 37.20 37.16 37.12 37.13 37.13 37.09 37.04 36.86 36.72 36.67 36.45 36.14 35.78 35.55 35.47 35.41 34.88 34.47 34.14 34.09 34.05 34.00 34.04 34.09 34.09 34.14 34.31 34.35 34.26 34.45 34.68 34.83 34.88 35.06 35.33 35.69 36.25 37.21 37.81 37.64 37.30 36.89 36.35 35.67 35.02 34.35 32.97 30.14 23.26 19.66 18.51 18.68 18.26 17.77 17.39 17.59 17.87 17.69 17.34 17.01 17.04 17.06 17.15 17.37 17.48
37.08 36.90 36.80 36.75 36.71 36.67 36.54 36.46 36.41 36.28 36.19 36.04 35.90 35.85 35.67 35.49 35.36 35.15 35.09 34.82 34.08 33.55 33.22 33.14 33.10 32.92 32.74 32.70 32.94 33.11 32.97 32.34 32.23 32.32 32.28 31.91 30.76 30.78 31.57 32.71 32.63 34.34 36.13 36.44 36.12 35.75 35.38 34.96 34.63 33.81 31.38 26.03 20.49 17.98 17.17 16.87 16.56 16.23 16.10 16.52 17.01 17.10 16.81 16.60 16.76 16.72 16.71 16.64 17.12
36.73 36.63 36.49 36.30 36.26 36.22 36.05 35.96 35.74 35.47 35.23 35.13 34.99 34.76 34.54 34.31 34.19 34.18 34.08 33.61 32.79 32.50 32.38 32.29 32.06 31.83 31.50 31.19 30.78 30.51 29.87 28.92 27.97 27.57 27.50 27.50 25.33 24.39 24.79 26.09 25.75 29.43 33.77 35.74 35.46 35.16 34.86 34.77 34.49 33.15 29.59 22.43 18.12 16.67 16.56 16.13 15.85 15.66 15.74 15.91 15.91 15.73 15.56 15.40 15.74 16.09 16.48 17.06 19.59
36.41 36.37 36.14 35.90 35.81 35.73 35.56 35.38 34.93 34.69 34.46 34.27 34.13 34.04 33.87 33.60 33.43 33.41 33.31 33.12 32.07 31.62 31.57 31.44 31.12 30.78 30.29 29.61 27.74 26.24 24.97 23.82 23.64 22.99 22.39 22.72 21.84 21.18 21.01 21.57 21.90 26.32 31.85 35.48 35.37 35.09 34.76 34.50 34.25 32.72 28.71 21.09 17.34 16.30 16.46 16.30 15.86 15.79 15.79 15.63 15.60 15.58 15.34 14.73 14.78 15.18 16.24 18.39 26.15
35.78 35.69 35.51 35.41 35.18 35.14 34.92 34.69 34.28 34.05 33.86 33.64 33.50 33.41 33.33 33.19 32.97 32.92 32.78 32.37 31.47 31.20 31.07 30.98 30.63 30.34 29.85 28.70 25.08 22.86 21.58 21.10 22.07 22.64 22.43 21.22 22.07 23.63 24.08 21.61 21.07 24.39 29.82 35.06 35.50 35.27 34.82 34.44 34.13 33.23 29.92 22.51 17.24 15.87 16.25 16.23 16.00 15.78 15.51 15.17 15.49 15.86 15.70 14.86 14.33 14.53 15.75 18.34 28.26
34.28 34.05 33.82 33.82 33.86 33.87 33.91 33.73 33.50 33.37 33.14 32.91 32.78 32.73 32.78 32.92 32.86 32.63 32.23 31.52 30.54 30.35 30.62 30.80 30.43 30.42 29.97 28.39 24.52 22.71 21.98 21.48 20.34 21.02 22.29 23.31 24.89 27.53 27.68 21.89 20.15 21.66 26.25 33.29 35.46 35.65 35.04 34.58 34.37 33.49 30.12 21.88 17.00 15.68 16.10 16.32 16.49 16.41 15.88 14.94 14.97 15.54 15.95 15.32 14.26 14.24 14.91 16.22 22.10
33.19 32.88 32.60 32.55 32.69 32.82 32.96 32.86 32.85 32.73 32.55 32.46 32.55 32.91 33.16 33.24 32.80 32.19 31.61 30.72 29.66 29.63 29.90 29.81 29.59 29.19 28.56 27.78 24.27 22.65 22.36 22.87 21.92 21.81 22.56 24.49 24.73 26.51 26.60 21.92 20.18 19.86 22.57 29.58 35.02 36.17 35.43 34.92 34.72 33.81 30.26 22.33 17.09 15.66 16.15 16.94 17.43 17.38 16.72 15.47 14.46 14.55 15.04 15.12 14.55 14.61 14.78 14.97 15.46
MSLP
1015.76 1015.72 1015.72 1015.68 1015.64 1015.68 1015.68 1015.64 1015.60 1015.56 1015.48 1015.44 1015.44 1015.36 1015.32 1015.24 1015.20 1015.16 1015.12 1015.04 1015.04 1015.04 1015.04 1015.08 1015.16 1015.20 1015.32 1015.44 1015.56 1015.72 1015.88 1015.88 1015.88 1015.88 1015.88 1015.88 1015.92 1016.04 1016.20 1016.44 1016.60 1016.60 1016.52 1016.48 1016.56 1016.68 1016.80 1016.88 1017.04 1017.16 1017.36 1017.52 1017.64 1017.80 1017.92 1018.00 1018.04 1018.16 1018.32 1018.36 1018.44 1018.52 1018.60 1018.72 1018.80 1018.88 1018.92 1018.96 1018.92
1015.88 1015.88 1015.84 1015.80 1015.72 1015.72 1015.72 1015.72 1015.72 1015.68 1015.60 1015.60 1015.56 1015.48 1015.44 1015.32 1015.32 1015.32 1015.32 1015.24 1015.16 1015.16 1015.16 1015.16 1015.28 1015.36 1015.44 1015.60 1015.68 1015.72 1015.72 1015.68 1015.72 1015.76 1015.88 1015.96 1016.16 1016.32 1016.56 1016.68 1016.76 1016.72 1016.68 1016.72 1016.76 1016.88 1017.00 1017.08 1017.16 1017.32 1017.44 1017.60 1017.72 1017.88 1018.00 1018.08 1018.16 1018.28 1018.40 1018.56 1018.60 1018.72 1018.80 1018.88 1019.04 1019.04 1019.08 1019.12 1019.16
1016.04 1016.00 1015.96 1015.92 1015.88 1015.88 1015.88 1015.88 1015.88 1015.88 1015.84 1015.80 1015.72 1015.64 1015.56 1015.52 1015.52 1015.52 1015.52 1015.48 1015.44 1015.32 1015.32 1015.32 1015.40 1015.44 1015.56 1015.60 1015.68 1015.72 1015.72 1015.72 1015.80 1015.92 1016.08 1016.28 1016.48 1016.68 1016.80 1016.88 1016.92 1016.92 1016.92 1016.96 1017.04 1017.08 1017.16 1017.24 1017.32 1017.44 1017.60 1017.72 1017.88 1018.04 1018.16 1018.28 1018.24 1018.32 1018.44 1018.72 1018.84 1018.88 1019.00 1019.12 1019.20 1019.24 1019.28 1019.36 1019.44
1016.12 1016.08 1016.08 1016.08 1016.08 1016.08 1016.08 1016.12 1016.12 1016.08 1016.04 1015.96 1015.84 1015.76 1015.76 1015.76 1015.80 1015.76 1015.72 1015.68 1015.60 1015.60 1015.60 1015.68 1015.68 1015.72 1015.80 1015.88 1015.88 1015.92 1016.00 1016.04 1016.16 1016.24 1016.40 1016.60 1016.80 1016.96 1017.04 1017.04 1017.04 1017.08 1017.12 1017.16 1017.16 1017.24 1017.32 1017.36 1017.48 1017.60 1017.80 1017.96 1018.08 1018.24 1018.36 1018.40 1018.40 1018.44 1018.64 1018.88 1019.00 1019.08 1019.16 1019.24 1019.32 1019.32 1019.40 1019.44 1019.56
1016.40 1016.36 1016.36 1016.32 1016.32 1016.32 1016.32 1016.32 1016.28 1016.24 1016.16 1016.12 1016.04 1016.04 1016.04 1016.04 1016.00 1016.00 1015.92 1015.88 1015.96 1016.04 1016.04 1016.00 1016.04 1016.12 1016.16 1016.16 1016.16 1016.24 1016.32 1016.44 1016.56 1016.64 1016.80 1016.96 1017.12 1017.16 1017.20 1017.20 1017.20 1017.24 1017.28 1017.32 1017.36 1017.40 1017.44 1017.48 1017.60 1017.76 1017.92 1018.04 1018.20 1018.32 1018.44 1018.44 1018.56 1018.72 1018.88 1019.04 1019.12 1019.16 1019.24 1019.28 1019.32 1019.36 1019.40 1019.48 1019.60
1016.72 1016.72 1016.64 1016.56 1016.56 1016.52 1016.48 1016.44 1016.44 1016.44 1016.40 1016.32 1016.32 1016.32 1016.36 1016.32 1016.28 1016.24 1016.24 1016.32 1016.40 1016.40 1016.36 1016.32 1016.36 1016.44 1016.48 1016.44 1016.44 1016.56 1016.68 1016.84 1017.00 1017.12 1017.20 1017.28 1017.40 1017.44 1017.44 1017.40 1017.40 1017.44 1017.44 1017.48 1017.52 1017.56 1017.60 1017.64 1017.80 1018.00 1018.12 1018.20 1018.40 1018.52 1018.60 1018.60 1018.76 1018.88 1019.04 1019.16 1019.28 1019.32 1019.36 1019.36 1019.40 1019.44 1019.44 1019.52 1019.72
1016.92 1016.88 1016.84 1016.84 1016.76 1016.76 1016.72 1016.72 1016.64 1016.60 1016.60 1016.60 1016.64 1016.72 1016.76 1016.68 1016.60 1016.60 1016.60 1016.64 1016.64 1016.64 1016.64 1016.64 1016.68 1016.72 1016.76 1016.76 1016.84 1016.96 1017.12 1017.28 1017.40 1017.44 1017.48 1017.56 1017.56 1017.60 1017.60 1017.60 1017.60 1017.64 1017.68 1017.72 1017.72 1017.80 1017.84 1017.88 1018.04 1018.16 1018.32 1018.40 1018.52 1018.64 1018.76 1018.84 1018.92 1019.04 1019.20 1019.36 1019.44 1019.44 1019.48 1019.52 1019.52 1019.52 1019.56 1019.64 1019.72
1017.08 1017.08 1017.08 1017.04 1017.00 1017.00 1016.96 1016.88 1016.88 1016.84 1016.88 1016.92 1017.04 1017.04 1017.04 1017.00 1016.96 1016.88 1016.88 1016.84 1016.88 1016.92 1016.92 1016.96 1017.04 1017.04 1017.04 1017.08 1017.16 1017.32 1017.44 1017.56 1017.60 1017.68 1017.72 1017.72 1017.76 1017.76 1017.76 1017.80 1017.84 1017.88 1017.96 1018.00 1018.04 1018.04 1018.08 1018.16 1018.24 1018.32 1018.44 1018.60 1018.72 1018.88 1019.00 1019.08 1019.16 1019.24 1019.36 1019.44 1019.56 1019.60 1019.60 1019.68 1019.68 1019.68 1019.68 1019.76 1019.88
1017.32 1017.32 1017.32 1017.24 1017.20 1017.20 1017.16 1017.12 1017.12 1017.12 1017.16 1017.28 1017.32 1017.32 1017.28 1017.20 1017.20 1017.16 1017.16 1017.16 1017.20 1017.24 1017.24 1017.24 1017.28 1017.24 1017.24 1017.32 1017.40 1017.48 1017.60 1017.68 1017.72 1017.80 1017.84 1017.88 1017.88 1017.88 1017.92 1017.96 1018.04 1018.12 1018.20 1018.24 1018.28 1018.32 1018.32 1018.36 1018.44 1018.60 1018.72 1018.80 1018.96 1019.12 1019.20 1019.24 1019.32 1019.40 1019.48 1019.60 1019.64 1019.72 1019.72 1019.80 1019.84 1019.84 1019.88 1019.96 1020.04
1017.56 1017.52 1017.48 1017.44 1017.44 1017.44 1017.36 1017.36 1017.40 1017.40 1017.44 1017.52 1017.56 1017.52 1017.48 1017.44 1017.44 1017.44 1017.44 1017.52 1017.48 1017.48 1017.48 1017.48 1017.44 1017.44 1017.44 1017.44 1017.52 1017.60 1017.68 1017.72 1017.80 1017.88 1017.92 1018.00 1018.04 1018.08 1018.12 1018.20 1018.24 1018.32 1018.36 1018.44 1018.52 1018.56 1018.60 1018.60 1018.72 1018.84 1018.96 1019.04 1019.16 1019.28 1019.32 1019.36 1019.40 1019.48 1019.60 1019.68 1019.72 1019.84 1019.88 1019.92 1020.00 1020.04 1020.12 1020.20 1020.28
1017.76 1017.72 1017.72 1017.72 1017.68 1017.60 1017.56 1017.56 1017.60 1017.60 1017.68 1017.72 1017.76 1017.72 1017.72 1017.68 1017.72 1017.72 1017.72 1017.72 1017.68 1017.72 1017.76 1017.76 1017.72 1017.68 1017.68 1017.72 1017.76 1017.84 1017.92 1017.96 1018.04 1018.08 1018.16 1018.20 1018.28 1018.32 1018.40 1018.44 1018.48 1018.52 1018.60 1018.64 1018.72 1018.76 1018.76 1018.84 1018.88 1019.00 1019.08 1019.16 1019.28 1019.36 1019.44 1019.44 1019.48 1019.60 1019.72 1019.80 1019.88 1019.96 1020.08 1020.16 1020.24 1020.32 1020.36 1020.44 1020.48
1017.96 1017.92 1017.92 1017.88 1017.84 1017.76 1017.72 1017.72 1017.80 1017.88 1017.92 1017.96 1017.96 1017.96 1017.96 1018.00 1018.00 1018.00 1017.92 1017.88 1017.92 1018.00 1018.04 1018.04 1018.00 1018.00 1018.00 1018.04 1018.12 1018.16 1018.20 1018.28 1018.32 1018.40 1018.44 1018.48 1018.52 1018.60 1018.64 1018.72 1018.76 1018.76 1018.80 1018.88 1018.88 1018.92 1018.96 1019.04 1019.08 1019.16 1019.24 1019.32 1019.40 1019.44 1019.52 1019.60 1019.64 1019.72 1019.88 1020.00 1020.04 1020.16 1020.24 1020.40 1020.44 1020.52 1020.60 1020.60 1020.64
1018.12 1018.08 1018.08 1018.04 1017.96 1017.92 1017.92 1018.00 1018.04 1018.12 1018.16 1018.16 1018.20 1018.20 1018.20 1018.24 1018.20 1018.16 1018.12 1018.08 1018.16 1018.24 1018.28 1018.28 1018.24 1018.28 1018.32 1018.32 1018.36 1018.40 1018.44 1018.48 1018.60 1018.64 1018.72 1018.76 1018.76 1018.84 1018.88 1018.88 1018.96 1019.00 1019.04 1019.04 1019.08 1019.12 1019.16 1019.20 1019.24 1019.32 1019.40 1019.48 1019.56 1019.64 1019.72 1019.72 1019.84 1019.92 1020.04 1020.16 1020.24 1020.32 1020.44 1020.56 1020.60 1020.68 1020.72 1020.72 1020.76
1018.32 1018.28 1018.28 1018.20 1018.16 1018.12 1018.16 1018.24 1018.32 1018.36 1018.40 1018.44 1018.44 1018.44 1018.44 1018.44 1018.40 1018.32 1018.32 1018.32 1018.36 1018.44 1018.44 1018.44 1018.44 1018.48 1018.52 1018.56 1018.60 1018.64 1018.68 1018.72 1018.76 1018.80 1018.88 1018.88 1018.96 1019.00 1019.04 1019.16 1019.16 1019.24 1019.28 1019.28 1019.32 1019.32 1019.32 1019.36 1019.44 1019.48 1019.56 1019.64 1019.72 1019.84 1019.88 1019.92 1020.04 1020.12 1020.20 1020.28 1020.36 1020.44 1020.60 1020.68 1020.76 1020.76 1020.76 1020.80 1020.88
1018.48 1018.48 1018.44 1018.44 1018.40 1018.36 1018.44 1018.48 1018.56 1018.60 1018.60 1018.64 1018.64 1018.64 1018.60 1018.60 1018.56 1018.52 1018.48 1018.52 1018.52 1018.52 1018.60 1018.60 1018.68 1018.72 1018.76 1018.76 1018.76 1018.84 1018.88 1018.88 1018.88 1018.96 1019.04 1019.08 1019.12 1019.16 1019.20 1019.32 1019.40 1019.44 1019.44 1019.48 1019.52 1019.52 1019.56 1019.60 1019.64 1019.72 1019.76 1019.88 1019.96 1020.04 1020.08 1020.16 1020.24 1020.32 1020.36 1020.44 1020.52 1020.60 1020.72 1020.76 1020.80 1020.80 1020.84 1020.88 1020.96
1018.72 1018.72 1018.68 1018.64 1018.60 1018.64 1018.68 1018.76 1018.80 1018.84 1018.84 1018.84 1018.84 1018.80 1018.76 1018.76 1018.76 1018.72 1018.72 1018.72 1018.68 1018.68 1018.76 1018.80 1018.88 1018.88 1018.92 1018.92 1019.00 1019.04 1019.04 1019.08 1019.12 1019.16 1019.20 1019.28 1019.32 1019.36 1019.40 1019.48 1019.56 1019.60 1019.64 1019.72 1019.72 1019.72 1019.80 1019.84 1019.88 1019.92 1020.00 1020.04 1020.16 1020.24 1020.32 1020.36 1020.44 1020.48 1020.56 1020.60 1020.64 1020.72 1020.76 1020.80 1020.84 1020.88 1020.92 1020.92 1021.00
1018.92 1018.92 1018.88 1018.88 1018.88 1018.88 1018.92 1019.00 1019.04 1019.04 1019.04 1019.04 1019.04 1019.00 1018.96 1018.92 1018.92 1018.92 1018.92 1018.92 1018.92 1018.92 1019.00 1019.04 1019.04 1019.08 1019.12 1019.16 1019.20 1019.28 1019.32 1019.32 1019.36 1019.40 1019.44 1019.52 1019.60 1019.64 1019.68 1019.72 1019.72 1019.80 1019.84 1019.88 1019.92 1019.96 1020.04 1020.08 1020.12 1020.16 1020.20 1020.28 1020.32 1020.44 1020.44 1020.52 1020.60 1020.64 1020.72 1020.76 1020.80 1020.88 1020.88 1020.92 1021.00 1021.04 1021.04 1021.08 1021.12
1019.12 1019.12 1019.08 1019.04 1019.08 1019.12 1019.16 1019.16 1019.20 1019.20 1019.20 1019.20 1019.20 1019.16 1019.16 1019.12 1019.16 1019.16 1019.16 1019.12 1019.16 1019.16 1019.20 1019.24 1019.32 1019.32 1019.36 1019.44 1019.48 1019.52 1019.56 1019.60 1019.64 1019.72 1019.72 1019.80 1019.84 1019.88 1019.88 1019.92 1019.96 1020.04 1020.08 1020.12 1020.16 1020.16 1020.24 1020.28 1020.32 1020.36 1020.44 1020.48 1020.52 1020.60 1020.60 1020.68 1020.76 1020.84 1020.88 1020.92 1021.00 1021.04 1021.08 1021.16 1021.16 1021.16 1021.20 1021.24 1021.32
1019.32 1019.32 1019.28 1019.28 1019.28 1019.28 1019.32 1019.32 1019.32 1019.36 1019.36 1019.36 1019.32 1019.32 1019.32 1019.32 1019.36 1019.32 1019.32 1019.36 1019.40 1019.44 1019.48 1019.52 1019.56 1019.60 1019.64 1019.72 1019.72 1019.72 1019.72 1019.80 1019.88 1019.92 1020.00 1020.04 1020.04 1020.12 1020.16 1020.16 1020.24 1020.28 1020.32 1020.32 1020.32 1020.40 1020.44 1020.48 1020.56 1020.60 1020.60 1020.64 1020.68 1020.76 1020.80 1020.88 1020.96 1021.04 1021.12 1021.16 1021.24 1021.28 1021.32 1021.36 1021.36 1021.40 1021.40 1021.44 1021.48
1019.44 1019.44 1019.44 1019.44 1019.44 1019.44 1019.44 1019.44 1019.48 1019.52 1019.48 1019.48 1019.48 1019.52 1019.52 1019.56 1019.52 1019.52 1019.56 1019.60 1019.64 1019.72 1019.72 1019.72 1019.80 1019.84 1019.88 1019.88 1019.88 1019.92 1019.96 1020.04 1020.08 1020.16 1020.20 1020.28 1020.32 1020.36 1020.40 1020.44 1020.48 1020.48 1020.48 1020.48 1020.56 1020.60 1020.64 1020.68 1020.76 1020.76 1020.76 1020.76 1020.88 1020.96 1021.04 1021.12 1021.20 1021.32 1021.36 1021.44 1021.48 1021.48 1021.52 1021.60 1021.60 1021.60 1021.64 1021.68 1021.68
1019.56 1019.56 1019.56 1019.56 1019.60 1019.60 1019.60 1019.60 1019.60 1019.64 1019.64 1019.64 1019.64 1019.68 1019.72 1019.72 1019.72 1019.76 1019.80 1019.88 1019.88 1019.88 1019.88 1019.92 1019.96 1020.00 1020.04 1020.04 1020.08 1020.12 1020.20 1020.28 1020.32 1020.40 1020.44 1020.48 1020.56 1020.60 1020.60 1020.60 1020.64 1020.64 1020.64 1020.64 1020.72 1020.76 1020.80 1020.88 1020.88 1020.88 1020.88 1020.96 1021.04 1021.16 1021.28 1021.36 1021.44 1021.56 1021.60 1021.68 1021.72 1021.72 1021.76 1021.76 1021.80 1021.84 1021.84 1021.88 1021.88
1019.68 1019.60 1019.60 1019.68 1019.68 1019.68 1019.72 1019.72 1019.72 1019.76 1019.76 1019.80 1019.84 1019.88 1019.88 1019.92 1020.00 1020.04 1020.04 1020.04 1020.04 1020.08 1020.08 1020.12 1020.16 1020.16 1020.20 1020.24 1020.32 1020.36 1020.44 1020.48 1020.60 1020.60 1020.68 1020.72 1020.72 1020.76 1020.76 1020.76 1020.80 1020.84 1020.88 1020.88 1020.92 1020.96 1021.00 1021.04 1021.04 1021.08 1021.16 1021.20 1021.32 1021.44 1021.56 1021.64 1021.72 1021.84 1021.88 1021.88 1021.96 1022.00 1022.00 1022.04 1022.04 1022.04 1022.04 1022.08 1022.12
1019.72 1019.72 1019.72 1019.76 1019.76 1019.76 1019.80 1019.84 1019.88 1019.88 1019.92 1019.96 1020.04 1020.04 1020.08 1020.12 1020.16 1020.20 1020.20 1020.20 1020.24 1020.24 1020.28 1020.32 1020.36 1020.44 1020.44 1020.44 1020.52 1020.60 1020.64 1020.76 1020.76 1020.84 1020.84 1020.88 1020.88 1020.96 1021.04 1021.04 1021.04 1021.04 1021.04 1021.08 1021.12 1021.16 1021.16 1021.20 1021.28 1021.32 1021.44 1021.56 1021.68 1021.76 1021.88 1021.96 1022.00 1022.04 1022.12 1022.16 1022.20 1022.24 1022.28 1022.32 1022.32 1022.32 1022.32 1022.32 1022.32
1019.88 1019.84 1019.84 1019.88 1019.88 1019.92 1019.96 1019.96 1020.00 1020.00 1020.04 1020.12 1020.16 1020.20 1020.28 1020.32 1020.32 1020.32 1020.36 1020.36 1020.40 1020.44 1020.44 1020.52 1020.60 1020.60 1020.64 1020.72 1020.76 1020.80 1020.88 1020.88 1020.96 1021.00 1021.04 1021.04 1021.08 1021.16 1021.20 1021.24 1021.20 1021.16 1021.16 1021.16 1021.24 1021.32 1021.36 1021.44 1021.56 1021.64 1021.72 1021.84 1021.92 1022.04 1022.16 1022.24 1022.32 1022.32 1022.36 1022.44 1022.44 1022.48 1022.52 1022.56 1022.56 1022.60 1022.60 1022.60 1022.56
1019.96 1019.96 1019.96 1020.00 1020.04 1020.04 1020.08 1020.12 1020.08 1020.16 1020.20 1020.28 1020.32 1020.36 1020.40 1020.44 1020.44 1020.48 1020.52 1020.52 1020.60 1020.60 1020.68 1020.72 1020.76 1020.80 1020.88 1020.88 1020.96 1021.00 1021.04 1021.04 1021.08 1021.16 1021.16 1021.20 1021.20 1021.20 1021.24 1021.28 1021.24 1021.20 1021.16 1021.16 1021.20 1021.32 1021.48 1021.64 1021.80 1021.92 1022.04 1022.12 1022.20 1022.32 1022.40 1022.48 1022.56 1022.60 1022.60 1022.64 1022.68 1022.72 1022.76 1022.76 1022.80 1022.80 1022.80 1022.80 1022.80
1020.04 1020.04 1020.08 1020.12 1020.16 1020.16 1020.20 1020.20 1020.20 1020.28 1020.36 1020.44 1020.44 1020.48 1020.56 1020.60 1020.60 1020.64 1020.68 1020.72 1020.80 1020.84 1020.88 1020.88 1020.92 1021.00 1021.04 1021.12 1021.12 1021.16 1021.16 1021.20 1021.20 1021.24 1021.28 1021.28 1021.32 1021.32 1021.28 1021.24 1021.20 1021.20 1021.20 1021.24 1021.32 1021.44 1021.60 1021.80 1022.00 1022.16 1022.28 1022.36 1022.44 1022.52 1022.60 1022.72 1022.76 1022.84 1022.88 1022.88 1022.88 1022.88 1022.92 1022.96 1023.00 1023.04 1023.04 1023.04 1023.04
1020.16 1020.16 1020.16 1020.20 1020.24 1020.32 1020.32 1020.36 1020.36 1020.40 1020.48 1020.56 1020.60 1020.64 1020.72 1020.76 1020.80 1020.84 1020.88 1020.92 1021.00 1021.04 1021.04 1021.12 1021.16 1021.16 1021.16 1021.24 1021.28 1021.32 1021.32 1021.36 1021.40 1021.36 1021.36 1021.40 1021.36 1021.36 1021.32 1021.32 1021.32 1021.32 1021.32 1021.40 1021.48 1021.60 1021.76 1021.96 1022.12 1022.32 1022.48 1022.60 1022.68 1022.76 1022.84 1022.92 1022.96 1023.00 1023.04 1023.04 1023.08 1023.08 1023.12 1023.20 1023.24 1023.20 1023.20 1023.20 1023.16
1020.32 1020.32 1020.32 1020.32 1020.40 1020.44 1020.44 1020.44 1020.48 1020.56 1020.64 1020.72 1020.76 1020.80 1020.88 1020.88 1020.96 1021.04 1021.08 1021.12 1021.16 1021.16 1021.24 1021.28 1021.32 1021.36 1021.36 1021.44 1021.48 1021.56 1021.56 1021.60 1021.60 1021.60 1021.56 1021.48 1021.44 1021.44 1021.44 1021.44 1021.44 1021.44 1021.52 1021.60 1021.72 1021.84 1021.96 1022.12 1022.28 1022.44 1022.60 1022.76 1022.88 1022.96 1023.04 1023.08 1023.16 1023.16 1023.20 1023.24 1023.28 1023.32 1023.36 1023.40 1023.40 1023.44 1023.44 1023.40 1023.32
1020.40 1020.44 1020.44 1020.44 1020.52 1020.56 1020.60 1020.60 1020.64 1020.76 1020.80 1020.84 1020.88 1020.92 1021.00 1021.04 1021.16 1021.16 1021.20 1021.28 1021.32 1021.36 1021.44 1021.44 1021.48 1021.52 1021.60 1021.64 1021.72 1021.72 1021.80 1021.80 1021.80 1021.72 1021.72 1021.64 1021.60 1021.64 1021.64 1021.64 1021.68 1021.72 1021.76 1021.84 1021.96 1022.08 1022.16 1022.32 1022.44 1022.60 1022.76 1022.92 1023.04 1023.16 1023.20 1023.24 1023.28 1023.32 1023.36 1023.40 1023.44 1023.48 1023.56 1023.60 1023.60 1023.60 1023.60 1023.56 1023.52
1020.52 1020.52 1020.56 1020.60 1020.64 1020.68 1020.72 1020.76 1020.80 1020.88 1020.92 1020.92 1021.04 1021.04 1021.12 1021.20 1021.28 1021.32 1021.40 1021.48 1021.56 1021.60 1021.64 1021.68 1021.72 1021.76 1021.84 1021.88 1021.88 1021.92 1021.96 1021.92 1021.92 1021.88 1021.84 1021.84 1021.80 1021.84 1021.88 1021.92 1022.00 1022.04 1022.04 1022.16 1022.24 1022.32 1022.44 1022.56 1022.64 1022.80 1022.96 1023.04 1023.20 1023.32 1023.36 1023.40 1023.44 1023.48 1023.56 1023.64 1023.68 1023.72 1023.72 1023.72 1023.76 1023.80 1023.76 1023.72 1023.68
1020.64 1020.68 1020.72 1020.76 1020.76 1020.80 1020.84 1020.88 1020.92 1021.00 1021.04 1021.08 1021.16 1021.20 1021.32 1021.40 1021.44 1021.56 1021.64 1021.72 1021.76 1021.84 1021.88 1021.88 1021.92 1022.00 1022.04 1022.08 1022.08 1022.08 1022.08 1022.12 1022.08 1022.04 1022.04 1022.04 1022.04 1022.12 1022.16 1022.20 1022.28 1022.32 1022.32 1022.36 1022.44 1022.56 1022.64 1022.76 1022.88 1023.00 1023.12 1023.24 1023.36 1023.44 1023.52 1023.60 1023.64 1023.72 1023.76 1023.84 1023.84 1023.88 1023.84 1023.84 1023.84 1023.88 1023.84 1023.84 1023.76
1020.76 1020.80 1020.84 1020.88 1020.88 1020.92 1020.96 1021.04 1021.04 1021.12 1021.16 1021.20 1021.28 1021.36 1021.44 1021.60 1021.72 1021.80 1021.88 1021.92 1022.00 1022.04 1022.12 1022.16 1022.16 1022.20 1022.24 1022.28 1022.32 1022.32 1022.28 1022.28 1022.24 1022.24 1022.24 1022.24 1022.32 1022.40 1022.44 1022.48 1022.56 1022.60 1022.60 1022.60 1022.68 1022.76 1022.84 1022.96 1023.08 1023.16 1023.28 1023.40 1023.52 1023.64 1023.72 1023.76 1023.84 1023.88 1023.92 1023.96 1023.96 1023.92 1023.92 1023.92 1023.96 1023.92 1023.92 1023.92 1023.88
1020.88 1020.88 1020.92 1021.00 1021.04 1021.08 1021.16 1021.16 1021.20 1021.24 1021.28 1021.32 1021.44 1021.60 1021.68 1021.76 1021.88 1022.00 1022.08 1022.16 1022.20 1022.28 1022.32 1022.36 1022.36 1022.36 1022.44 1022.44 1022.48 1022.48 1022.48 1022.48 1022.48 1022.44 1022.48 1022.56 1022.60 1022.68 1022.76 1022.76 1022.80 1022.80 1022.76 1022.80 1022.88 1022.96 1023.04 1023.16 1023.24 1023.32 1023.44 1023.56 1023.72 1023.84 1023.92 1023.92 1024.00 1024.04 1024.04 1024.08 1024.08 1024.04 1024.04 1024.08 1024.08 1024.08 1024.08 1024.08 1024.04
1021.00 1021.04 1021.08 1021.12 1021.16 1021.24 1021.28 1021.32 1021.32 1021.36 1021.44 1021.52 1021.60 1021.72 1021.88 1021.96 1022.04 1022.16 1022.28 1022.32 1022.40 1022.44 1022.52 1022.56 1022.60 1022.64 1022.68 1022.72 1022.72 1022.76 1022.72 1022.72 1022.72 1022.76 1022.80 1022.84 1022.88 1022.92 1023.00 1023.00 1023.04 1023.04 1023.00 1023.04 1023.12 1023.16 1023.24 1023.32 1023.40 1023.48 1023.60 1023.68 1023.88 1024.00 1024.04 1024.08 1024.16 1024.16 1024.20 1024.20 1024.20 1024.20 1024.20 1024.24 1024.28 1024.28 1024.28 1024.24 1024.20
1021.08 1021.16 1021.24 1021.28 1021.32 1021.36 1021.44 1021.44 1021.44 1021.52 1021.60 1021.72 1021.80 1021.92 1022.04 1022.16 1022.24 1022.32 1022.40 1022.48 1022.60 1022.64 1022.76 1022.80 1022.88 1022.88 1022.92 1022.92 1022.92 1022.92 1022.92 1022.96 1023.00 1023.04 1023.08 1023.16 1023.16 1023.16 1023.20 1023.24 1023.24 1023.20 1023.24 1023.32 1023.32 1023.36 1023.44 1023.48 1023.60 1023.64 1023.76 1023.88 1024.12 1024.16 1024.20 1024.28 1024.32 1024.36 1024.40 1024.40 1024.40 1024.36 1024.36 1024.36 1024.36 1024.36 1024.36 1024.32 1024.32
1021.20 1021.28 1021.32 1021.40 1021.44 1021.48 1021.56 1021.56 1021.60 1021.64 1021.76 1021.88 1021.96 1022.04 1022.16 1022.32 1022.40 1022.48 1022.56 1022.64 1022.76 1022.84 1022.92 1023.04 1023.08 1023.16 1023.16 1023.20 1023.20 1023.20 1023.24 1023.28 1023.36 1023.40 1023.44 1023.44 1023.48 1023.52 1023.52 1023.48 1023.48 1023.44 1023.44 1023.44 1023.48 1023.56 1023.60 1023.64 1023.72 1023.76 1023.92 1024.12 1024.24 1024.32 1024.36 1024.44 1024.48 1024.52 1024.56 1024.56 1024.56 1024.52 1024.52 1024.52 1024.48 1024.48 1024.48 1024.44 1024.44
1021.32 1021.32 1021.44 1021.48 1021.56 1021.60 1021.64 1021.68 1021.72 1021.80 1021.88 1022.04 1022.16 1022.24 1022.32 1022.44 1022.60 1022.68 1022.76 1022.80 1022.92 1023.04 1023.16 1023.24 1023.32 1023.36 1023.40 1023.44 1023.48 1023.52 1023.60 1023.60 1023.68 1023.72 1023.76 1023.84 1023.88 1023.88 1023.88 1023.88 1023.88 1023.72 1023.60 1023.60 1023.60 1023.64 1023.72 1023.72 1023.84 1023.92 1024.04 1024.20 1024.36 1024.44 1024.48 1024.56 1024.60 1024.64 1024.68 1024.72 1024.72 1024.68 1024.64 1024.60 1024.60 1024.60 1024.56 1024.48 1024.40
1021.36 1021.44 1021.48 1021.60 1021.64 1021.72 1021.72 1021.76 1021.88 1021.96 1022.08 1022.20 1022.32 1022.44 1022.52 1022.64 1022.76 1022.88 1022.92 1023.00 1023.08 1023.20 1023.32 1023.44 1023.48 1023.56 1023.60 1023.68 1023.72 1023.80 1023.88 1023.88 1023.96 1024.00 1024.04 1024.08 1024.12 1024.16 1024.16 1024.12 1024.08 1023.96 1023.76 1023.72 1023.72 1023.72 1023.76 1023.84 1023.88 1024.00 1024.16 1024.32 1024.44 1024.56 1024.60 1024.68 1024.76 1024.76 1024.80 1024.84 1024.80 1024.76 1024.76 1024.72 1024.68 1024.64 1024.60 1024.48 1024.24
1021.44 1021.48 1021.56 1021.64 1021.72 1021.76 1021.84 1021.88 1022.00 1022.12 1022.24 1022.36 1022.44 1022.60 1022.72 1022.84 1022.92 1023.04 1023.16 1023.20 1023.28 1023.32 1023.44 1023.56 1023.64 1023.72 1023.72 1023.84 1023.92 1024.04 1024.08 1024.08 1024.12 1024.12 1024.16 1024.24 1024.24 1024.24 1024.20 1024.24 1024.20 1024.16 1024.00 1023.76 1023.72 1023.72 1023.80 1023.84 1023.92 1024.04 1024.16 1024.44 1024.56 1024.60 1024.68 1024.76 1024.84 1024.88 1024.92 1024.92 1024.88 1024.88 1024.80 1024.76 1024.76 1024.72 1024.60 1024.52 1024.24
1021.60 1021.60 1021.68 1021.72 1021.80 1021.88 1021.96 1022.04 1022.16 1022.28 1022.36 1022.44 1022.60 1022.76 1022.88 1022.96 1023.08 1023.24 1023.32 1023.44 1023.48 1023.52 1023.60 1023.68 1023.72 1023.80 1023.88 1023.92 1024.04 1024.12 1024.16 1024.20 1024.24 1024.28 1024.28 1024.32 1024.28 1024.20 1024.20 1024.32 1024.32 1024.28 1024.16 1023.84 1023.72 1023.72 1023.76 1023.84 1023.92 1024.04 1024.24 1024.52 1024.60 1024.64 1024.68 1024.76 1024.88 1025.00 1025.04 1025.04 1025.04 1025.00 1024.88 1024.84 1024.84 1024.80 1024.72 1024.60 1024.44
1021.68 1021.72 1021.80 1021.88 1021.96 1022.04 1022.08 1022.16 1022.32 1022.36 1022.44 1022.60 1022.72 1022.88 1023.00 1023.08 1023.24 1023.36 1023.48 1023.60 1023.68 1023.72 1023.72 1023.80 1023.88 1023.96 1024.00 1024.04 1024.12 1024.20 1024.28 1024.32 1024.32 1024.36 1024.36 1024.32 1024.32 1024.28 1024.28 1024.32 1024.32 1024.28 1024.16 1023.92 1023.72 1023.72 1023.76 1023.84 1023.92 1024.04 1024.28 1024.56 1024.60 1024.64 1024.68 1024.76 1024.92 1025.04 1025.12 1025.16 1025.16 1025.12 1025.04 1025.00 1024.92 1024.88 1024.80 1024.72 1024.64
Wind_Speed
3 3 2 2 1 1 1 2 2 2 2 2 2 2 2 2 3 3 3 3 3 3 3 3 3 3 3 4 4 4 4 5 5 6 6 7 8 8 8 6 5 5 5 5 5 5 5 4 4 3 3 3 3 3 2 2 2 3 3 3 2 2 2 1 1 1 1 1 1
4 4 4 4 3 3 3 3 3 4 3 3 3 3 3 3 3 4 4 4 4 3 4 4 5 6 6 7 6 6 7 8 9 9 10 10 9 8 7 6 5 5 6 6 5 5 4 4 4 4 3 3 3 3 3 2 2 3 4 4 3 2 2 3 3 3 3 3 3
5 5 5 5 5 4 4 4 4 4 4 4 3 3 4 4 4 4 4 4 4 5 5 5 6 7 8 8 8 8 9 9 10 10 10 9 8 7 6 6 6 6 6 6 5 5 5 5 4 4 3 3 3 3 3 2 3 4 5 5 3 3 3 3 3 3 3 3 4
7 6 6 7 7 7 5 4 5 5 4 4 3 4 4 4 4 4 4 4 6 6 6 6 6 7 8 9 9 10 10 10 10 10 10 9 8 7 7 6 6 6 6 6 6 6 6 5 4 4 4 4 4 3 3 3 4 4 4 3 3 3 3 3 2 3 3 3 4
7 7 6 7 7 7 6 5 5 5 5 4 4 5 5 4 4 4 5 6 7 7 7 7 7 7 7 8 10 11 11 10 10 9 8 8 8 7 7 7 7 6 6 6 6 6 6 6 4 4 4 4 3 3 3 4 5 4 3 3 2 2 2 2 2 2 2 3 3
6 6 6 6 6 6 5 5 6 6 5 6 7 7 6 5 5 6 6 6 6 6 7 8 8 7 8 9 10 10 10 9 8 8 7 7 7 7 7 7 7 6 6 6 6 7 6 6 4 4 3 3 3 3 3 4 4 4 4 3 2 2 2 2 2 2 3 4 4
6 7 7 7 7 7 6 6 6 6 6 7 8 8 7 6 7 7 7 6 6 6 7 7 7 7 8 8 9 9 8 8 7 7 7 7 7 7 7 7 7 7 6 6 6 6 5 5 4 3 3 3 3 3 4 4 4 4 4 3 3 2 2 2 2 2 4 5 5
7 7 7 7 7 7 7 7 7 7 7 7 8 8 8 7 7 7 7 7 6 6 6 6 6 7 7 8 8 8 8 7 7 7 6 6 7 7 7 7 7 7 7 6 6 6 5 4 3 3 3 3 3 4 4 5 5 5 5 4 3 3 2 2 2 3 4 5 5
6 6 6 7 7 7 8 8 8 9 8 8 8 8 8 8 8 8 7 7 6 6 5 5 6 7 8 8 7 7 7 6 7 7 7 6 7 7 7 7 7 7 7 6 6 6 5 4 4 4 3 3 3 4 4 6 6 6 6 4 4 3 3 3 3 4 4 5 6
6 6 6 6 7 7 7 8 9 9 9 9 8 8 8 8 8 7 6 5 5 6 6 5 6 7 7 8 7 7 7 6 7 7 8 8 8 7 7 6 7 7 6 6 6 5 5 5 5 5 5 4 5 5 5 6 7 6 5 4 4 4 5 5 5 5 5 5 6
6 6 6 6 6 6 7 8 8 8 8 8 8 8 8 8 7 6 5 5 6 7 7 6 7 7 7 7 7 7 7 7 7 8 8 8 8 8 8 7 7 7 7 6 5 5 5 5 5 6 6 5 5 6 6 6 7 6 6 4 5 6 6 6 5 5 5 5 6
6 6 6 6 6 6 7 8 8 8 8 8 8 8 7 7 6 5 5 6 8 7 7 6 7 7 7 6 6 7 7 8 8 8 8 8 9 8 8 8 8 8 7 7 5 5 5 5 6 6 7 6 5 5 6 6 7 7 6 6 6 6 6 6 6 5 4 5 6
7 6 6 6 6 7 8 8 7 7 7 8 7 7 6 6 6 6 6 7 7 7 6 6 7 7 7 6 6 7 7 8 8 7 7 7 8 8 8 8 8 7 7 6 5 5 5 6 6 7 7 6 5 5 6 6 6 7 7 7 7 7 7 6 6 5 5 5 6
7 7 7 7 7 8 8 8 7 6 7 7 7 6 6 5 6 6 6 6 6 6 6 6 6 6 6 7 7 7 7 7 7 7 7 7 7 7 8 7 7 7 6 6 6 6 6 6 7 7 7 7 7 7 7 7 7 7 7 7 7 7 7 6 5 5 5 6 6
8 8 7 7 8 7 7 7 6 6 6 6 6 5 5 5 6 6 6 6 6 6 6 6 6 6 7 7 7 7 7 7 7 7 7 8 7 7 7 7 7 6 6 6 6 6 7 7 7 7 8 8 8 8 7 7 7 7 7 7 7 7 6 5 5 5 5 6 6
8 7 7 8 8 7 7 6 5 5 6 6 5 5 5 5 5 6 6 6 6 6 6 6 6 6 6 8 8 7 7 7 7 7 7 7 7 7 7 7 7 7 7 7 7 7 7 7 7 7 8 8 8 8 8 8 8 7 7 7 6 6 6 5 5 5 5 5 5
7 7 7 7 8 7 7 6 5 5 5 6 5 5 5 5 5 6 6 6 6 6 6 7 6 6 6 7 7 7 7 7 7 7 7 7 7 7 7 7 7 7 7 7 7 8 8 7 7 8 8 8 8 8 8 8 7 7 7 6 6 6 5 5 5 5 5 6 6
6 6 6 7 7 7 7 6 6 6 6 6 5 5 6 6 6 6 6 7 7 7 7 7 7 7 7 7 6 6 7 7 7 7 7 7 7 7 7 7 7 8 8 8 8 8 8 8 8 8 8 8 7 7 7 7 7 7 7 6 6 6 5 5 5 5 5 5 5
5 5 6 6 6 6 6 6 6 6 6 6 6 6 7 7 6 6 7 8 8 8 7 7 7 7 7 7 7 7 7 7 8 8 8 7 7 7 8 8 8 7 8 8 8 8 8 7 7 7 7 7 7 7 7 7 7 7 7 7 7 6 6 6 5 5 5 5 4
4 5 5 6 6 6 6 6 6 6 6 6 6 7 7 8 7 8 8 8 8 7 7 7 7 7 7 8 8 8 8 7 8 8 8 8 8 8 8 7 7 7 7 7 8 8 7 7 7 7 7 8 8 8 8 8 7 7 7 7 7 7 6 6 6 6 5 5 4
4 5 5 5 5 5 6 6 6 6 6 6 7 8 8 8 8 8 8 8 7 7 8 8 8 8 8 8 9 8 8 7 8 8 8 8 8 7 7 7 7 6 6 7 7 7 7 7 7 7 7 8 8 8 8 7 7 7 7 6 6 7 7 7 6 6 6 6 5
4 5 5 5 5 5 6 6 6 6 7 7 8 8 8 8 8 8 7 7 8 8 8 8 8 8 8 8 9 8 8 7 7 7 7 7 7 7 7 6 6 6 6 6 6 6 6 7 7 7 7 7 8 7 7 7 7 7 7 7 7 7 7 7 7 7 7 6 6
4 5 5 5 5 6 6 6 6 6 7 7 8 8 8 7 7 7 7 7 8 8 8 7 8 8 8 8 8 8 8 7 7 6 6 6 6 6 6 5 6 6 6 5 5 5 6 6 7 7 7 7 7 7 7 6 7 7 7 7 8 8 8 8 8 8 8 7 6
4 5 5 4 5 5 5 5 6 7 7 7 7 7 7 7 7 7 7 8 8 8 8 7 7 8 8 8 8 8 8 7 7 7 6 6 6 5 4 4 4 5 5 5 6 6 6 6 6 6 6 7 7 6 6 6 6 6 7 7 7 8 8 8 8 8 8 7 7
4 4 5 5 5 4 5 5 6 7 7 7 7 6 6 6 6 7 7 8 8 8 8 8 7 7 7 7 7 6 6 7 7 6 6 6 5 4 4 3 3 3 4 6 9 10 10 8 7 6 5 6 6 6 6 6 6 6 6 7 7 7 7 7 7 7 7 7 6
4 5 5 5 5 5 5 6 6 7 7 6 6 6 6 6 6 6 7 7 7 7 7 7 7 7 7 6 6 6 6 5 5 5 5 5 4 4 3 3 3 3 4 7 10 12 12 12 11 9 6 5 5 6 6 6 6 6 6 6 6 6 6 7 6 6 6 6 5
4 5 5 6 6 5 5 6 6 6 6 6 6 6 6 6 5 6 6 6 6 6 6 5 6 6 6 6 6 7 6 6 6 6 5 5 5 5 5 4 4 4 6 10 11 12 12 13 13 11 9 6 6 6 6 6 6 6 6 6 6 6 6 6 6 5 5 5 5
4 5 5 6 6 6 6 6 6 6 6 6 6 6 6 6 6 6 5 5 5 5 5 5 5 5 5 5 7 7 7 7 6 6 6 6 7 7 6 5 5 6 9 12 12 12 12 12 13 12 11 8 6 5 5 5 5 5 5 5 5 5 5 5 4 4 4 4 4
4 5 5 6 6 6 6 6 6 6 6 6 6 5 5 5 6 6 6 6 6 5 5 4 4 4 5 6 7 7 7 6 5 5 6 7 7 8 7 7 7 8 11 13 12 12 12 12 12 12 11 9 6 4 4 4 4 4 4 4 4 4 4 4 4 3 4 4 4
4 4 5 6 6 6 6 6 6 6 5 5 5 5 6 6 6 7 7 7 7 6 5 5 5 6 6 7 6 6 6 5 5 5 6 7 8 9 8 8 7 8 10 13 12 12 12 12 12 12 12 11 8 5 4 4 4 4 4 4 4 4 4 3 3 3 3 3 4
4 4 5 5 6 6 6 6 5 5 5 5 5 6 7 7 7 7 7 7 7 7 7 6 7 7 7 7 6 6 6 6 6 6 7 8 9 9 9 8 8 8 10 12 12 12 12 12 12 12 12 11 8 5 4 4 4 4 4 4 4 4 3 3 3 3 4 4 4
4 5 5 5 5 6 6 5 5 5 5 6 7 7 8 8 8 7 7 6 7 7 7 7 8 8 8 7 6 6 6 7 7 7 8 8 8 8 8 7 7 8 9 12 12 11 11 12 12 12 12 11 8 6 4 4 4 4 3 3 3 3 3 3 3 4 4 4 4
5 5 5 6 6 6 6 5 5 6 6 7 8 8 8 8 7 7 7 6 6 7 7 7 7 7 7 7 6 6 7 7 8 8 8 8 8 7 7 6 6 7 10 11 11 11 12 12 12 13 13 11 8 5 4 4 3 3 3 3 3 3 4 4 3 3 3 3 3
5 5 6 6 6 6 6 5 6 7 7 8 8 8 8 8 7 7 7 6 6 6 6 6 7 6 6 6 6 6 7 7 7 8 8 7 7 7 6 5 5 7 10 11 11 12 12 13 13 13 12 10 7 5 4 4 3 3 4 4 3 3 3 3 2 2 2 2 2
5 6 6 6 6 6 6 6 7 7 8 8 8 8 8 8 7 7 7 7 7 6 6 6 6 5 5 5 6 6 7 7 7 7 7 7 7 7 7 6 5 8 10 11 12 12 12 13 13 12 11 8 5 4 4 4 4 4 4 4 4 4 4 3 3 2 2 1 1
6 6 6 6 6 6 6 7 7 8 8 8 8 8 8 7 7 7 7 7 7 6 6 5 5 5 5 5 6 6 7 7 7 7 7 6 6 6 5 5 5 7 10 12 12 12 12 12 12 11 9 6 4 4 4 4 4 4 4 4 3 4 4 4 3 3 3 2 1
5 6 6 6 6 6 6 7 7 8 8 8 8 8 8 7 7 6 6 6 6 6 6 5 5 5 5 5 5 5 5 5 5 5 5 5 4 4 3 3 3 4 8 12 11 12 11 11 11 9 7 4 4 4 4 3 3 3 3 3 3 3 3 3 3 3 3 3 2
5 6 6 6 6 6 6 7 8 8 8 8 7 7 7 7 6 5 5 5 6 6 6 5 5 4 4 4 4 4 4 4 4 4 3 3 2 2 2 2 2 2 4 9 10 10 10 10 9 8 6 3 3 3 3 3 3 3 3 3 3 3 3 3 3 3 3 4 3
5 5 6 6 6 6 7 7 7 8 8 7 7 7 6 6 5 5 5 5 5 5 5 5 5 4 4 4 4 3 3 3 3 3 2 1 1 1 1 1 2 3 2 5 8 9 8 8 8 7 6 4 3 3 3 3 2 2 2 3 3 3 3 3 3 3 4 5 6
5 5 6 6 6 6 7 7 7 7 7 7 7 7 6 6 5 5 5 4 4 4 5 5 4 4 4 4 4 4 3 3 3 2 2 1 1 1 1 1 1 3 3 1 6 7 7 7 7 8 7 4 3 3 3 3 2 2 2 3 3 3 3 3 3 3 4 4 6
5 6 6 6 6 6 7 7 7 6 6 6 6 6 6 6 6 5 5 4 4 4 4 4 4 4 4 4 4 4 3 3 2 2 1 1 2 2 2 1 1 3 3 1 4 6 7 7 8 8 7 5 3 3 2 3 3 2 2 2 2 3 3 3 3 3 4 4 4
Wind_Direction
34 35 37 40 52 67 73 61 47 37 28 25 19 15 18 37 42 38 32 33 37 40 44 50 51 50 50 53 74 93 105 108 102 92 80 70 63 57 54 51 49 52 57 62 65 68 73 79 85 85 82 83 85 80 72 69 86 87 84 79 84 97 114 138 163 208 234 241 269
39 40 42 44 48 55 61 56 45 39 34 33 31 30 34 44 44 40 34 32 34 40 47 52 51 53 56 60 68 76 80 81 79 75 70 65 63 62 61 60 57 58 63 67 69 71 74 77 84 87 87 85 85 80 74 66 88 88 80 65 57 54 55 56 38 29 25 24 18
40 42 44 45 44 47 49 49 42 36 32 30 32 36 40 44 43 42 40 36 36 40 45 51 52 54 55 56 58 61 63 65 68 70 69 66 64 64 65 66 63 62 63 68 70 72 74 75 80 82 83 80 79 78 74 56 69 76 73 60 52 51 55 57 44 41 41 43 35
39 42 44 46 45 46 47 48 41 35 32 30 34 38 41 42 41 40 42 42 41 42 44 48 53 54 55 58 58 58 57 58 63 67 70 69 66 65 66 67 65 64 63 66 69 70 71 71 74 74 71 70 72 72 70 62 63 66 66 59 58 62 67 72 63 62 64 64 54
42 43 46 48 48 49 49 47 45 40 36 34 38 38 38 37 36 38 43 46 44 43 45 50 57 60 60 62 63 62 59 56 59 64 68 69 68 67 66 66 67 66 64 64 66 68 69 68 70 70 69 69 70 71 71 73 74 73 69 61 59 64 73 83 79 80 81 79 71
47 46 46 48 48 49 49 48 48 47 46 45 44 41 38 36 37 42 46 50 48 46 48 53 59 63 64 63 64 64 62 58 58 62 68 71 70 68 67 66 66 66 65 63 65 67 69 71 75 76 76 77 77 73 72 76 82 83 78 68 57 56 65 76 80 83 84 84 79
53 50 48 47 47 48 48 46 49 51 51 50 47 44 42 40 43 46 50 52 48 47 49 53 57 61 64 65 67 67 67 65 64 64 67 71 71 69 67 64 62 59 59 59 62 65 68 72 81 84 83 82 78 67 63 69 78 83 82 73 61 54 57 61 66 77 83 84 82
53 51 49 48 49 50 50 49 52 53 53 52 48 45 43 43 46 48 50 50 48 48 50 54 56 61 67 69 72 73 73 73 71 69 68 70 70 69 69 66 63 60 56 55 60 64 67 69 75 78 76 75 73 68 67 73 79 83 83 79 69 61 55 53 58 70 79 83 82
49 47 47 48 49 51 53 54 56 57 58 55 50 46 45 45 47 49 51 51 49 48 50 53 55 60 65 69 72 74 75 76 74 72 70 68 68 68 68 68 67 65 62 57 59 61 65 69 71 70 69 71 73 75 77 81 83 84 84 82 76 65 58 52 53 60 70 77 78
47 43 44 47 46 50 56 58 58 59 59 56 50 47 46 47 48 49 52 55 52 48 46 44 48 53 58 62 64 65 67 69 69 67 65 63 62 62 62 63 64 64 64 59 57 57 61 69 73 74 74 77 80 82 82 83 85 85 84 82 77 68 60 52 52 56 62 70 74
47 45 45 46 45 50 56 58 56 55 54 53 49 46 45 45 46 48 52 56 56 51 45 41 44 48 53 56 58 58 58 60 62 63 62 61 59 58 57 56 58 60 62 61 60 61 66 72 76 77 77 78 81 83 83 83 84 84 84 80 76 71 64 55 53 56 62 69 72
47 46 45 46 46 51 56 57 55 52 50 49 47 45 43 41 41 45 52 57 59 54 48 43 47 50 52 55 58 59 60 62 62 63 63 63 62 61 60 58 57 58 60 61 63 66 72 75 78 77 75 72 74 77 80 82 83 83 81 77 74 72 68 63 60 61 65 69 72
49 47 45 44 47 52 55 56 54 51 48 46 44 43 41 38 39 43 52 58 60 58 53 48 51 53 56 59 60 62 65 68 67 67 67 67 67 67 65 63 60 58 58 59 61 67 73 76 77 77 76 72 71 71 73 77 79 80 80 77 76 75 74 72 72 72 74 74 74
49 47 46 46 48 52 54 55 53 49 46 44 42 40 39 37 39 44 51 56 60 60 58 53 53 55 59 62 65 66 67 70 72 73 74 73 73 72 70 68 63 61 59 59 61 66 71 74 76 77 78 76 73 71 71 73 76 78 79 80 80 81 81 82 83 84 84 83 81
49 47 47 49 50 53 54 53 52 48 44 43 39 38 38 39 40 44 48 52 57 60 60 58 57 58 60 62 65 67 68 70 71 73 74 75 74 74 75 74 70 67 65 64 63 64 67 71 74 77 78 79 77 76 75 76 78 79 82 84 88 91 92 95 95 95 94 94 92
49 48 48 51 53 54 55 53 52 48 45 42 37 38 39 41 41 43 45 47 53 58 60 61 61 60 60 60 61 62 64 65 66 68 71 72 70 72 74 75 73 72 71 69 68 66 66 68 73 76 78 81 80 80 81 81 82 84 86 88 93 97 100 102 102 100 99 98 98
51 49 50 53 55 56 56 55 53 50 46 42 39 39 41 43 44 46 47 49 54 57 59 60 60 60 60 60 58 58 59 60 60 62 63 65 64 65 66 68 70 71 72 72 72 71 71 70 74 77 79 81 82 83 84 85 86 87 87 88 91 93 96 97 97 96 94 93 96
52 50 51 54 56 57 57 57 55 52 49 46 43 43 45 46 48 50 52 54 56 57 58 59 59 59 61 63 63 62 61 60 58 57 57 57 57 59 61 63 66 69 72 73 73 74 74 74 77 79 82 83 84 84 84 84 84 84 83 82 82 81 81 81 81 83 87 90 94
53 53 53 55 56 58 58 58 57 55 53 51 51 51 50 50 51 54 57 57 57 58 59 61 61 61 62 65 66 66 64 62 60 59 58 56 57 59 61 63 66 69 72 74 76 76 77 77 80 83 85 85 84 82 81 80 79 77 76 76 74 73 71 70 69 71 76 82 85
54 56 57 58 59 60 61 61 59 58 57 57 56 56 55 54 54 57 59 60 60 61 63 66 66 65 65 65 66 65 64 62 61 61 61 61 61 63 65 68 69 71 74 77 79 81 81 82 82 83 85 85 84 82 80 78 76 75 73 71 69 67 66 65 64 64 64 66 64
54 59 63 64 64 66 66 65 64 63 61 62 61 60 59 57 57 58 60 63 63 63 64 66 67 67 67 66 67 66 65 64 64 65 67 68 68 69 69 71 72 73 74 77 79 81 81 80 79 79 80 81 81 81 80 79 77 75 73 71 67 64 61 60 59 58 56 54 50
59 65 68 67 69 70 71 71 70 67 65 64 64 64 63 62 61 61 63 65 65 64 63 64 65 66 66 67 68 69 69 68 68 70 72 75 74 73 72 72 74 74 74 74 73 74 74 73 72 72 73 74 75 76 77 79 80 78 75 72 67 61 56 53 52 50 49 46 43
70 72 72 72 72 74 74 75 74 72 70 68 67 66 65 66 65 65 66 67 67 67 66 66 66 67 68 70 73 75 76 76 74 74 75 78 78 76 74 73 75 77 77 75 70 68 67 67 67 67 69 71 71 71 71 74 78 78 76 72 66 60 55 50 47 45 43 39 37
77 78 78 76 74 75 76 77 78 77 75 72 70 69 68 69 69 68 68 68 69 70 70 71 71 71 73 75 77 79 81 82 82 81 81 82 83 83 81 79 80 83 84 83 79 74 71 69 65 65 66 69 69 67 65 64 68 71 72 71 68 63 57 51 48 45 43 38 35
81 83 84 82 78 77 78 80 82 82 80 77 75 72 71 70 70 71 71 72 73 74 76 78 78 77 77 76 76 78 80 84 86 88 89 89 90 90 90 89 88 89 90 90 87 85 83 80 75 69 65 67 68 66 64 61 62 65 68 70 69 66 61 55 50 47 44 41 37
88 88 87 86 84 83 82 84 86 86 84 81 78 76 74 72 72 73 74 77 78 80 81 83 84 83 82 78 76 75 74 75 75 77 80 81 80 78 76 75 76 78 83 87 87 88 88 87 84 79 71 66 68 69 68 64 62 64 66 68 68 67 64 59 52 47 44 41 37
93 93 92 91 89 87 87 88 88 87 86 83 82 80 78 76 75 74 76 80 81 81 81 82 83 84 82 78 74 71 69 65 62 60 61 62 62 62 61 62 61 67 76 81 84 86 88 89 87 83 78 71 72 75 76 75 70 68 68 68 68 68 67 65 58 51 44 38 32
95 96 96 95 93 91 90 89 88 87 87 86 86 85 83 80 78 77 77 78 79 78 76 75 77 78 78 75 72 68 65 61 57 56 55 56 56 56 55 55 58 68 76 79 80 82 85 88 88 87 85 80 78 79 82 82 78 75 72 71 70 69 69 67 61 54 45 35 27
94 97 98 98 96 94 92 90 90 90 91 92 91 89 86 82 80 78 76 73 71 71 71 73 74 75 74 74 71 67 63 59 56 55 55 57 57 55 54 53 58 68 75 78 80 82 84 86 89 91 90 86 82 80 81 83 83 80 77 74 72 71 69 65 59 51 43 32 23
92 96 98 100 98 96 93 92 93 95 97 96 93 89 86 82 79 77 75 72 69 68 69 70 71 71 71 72 71 68 64 59 55 55 56 60 60 58 56 54 57 67 75 78 80 82 84 86 90 92 93 91 87 84 82 82 83 82 80 76 72 71 69 64 57 48 37 27 22
92 96 97 98 97 96 95 94 96 98 99 97 92 88 85 83 80 78 76 74 73 72 72 71 72 71 70 67 65 63 60 56 54 55 57 61 62 61 58 56 59 67 75 79 81 83 85 88 92 94 95 93 89 84 80 80 81 81 79 76 71 66 64 60 53 45 37 30 25
96 96 95 95 95 94 94 94 97 97 96 94 91 89 87 85 83 80 78 78 77 76 74 73 73 72 70 65 62 57 54 53 54 55 57 60 61 61 61 59 62 70 77 81 83 86 88 91 94 96 96 94 89 82 77 78 77 76 73 68 60 55 52 50 46 41 36 31 29
99 97 95 94 92 91 90 91 92 93 92 92 92 92 91 89 86 82 79 77 76 74 73 72 72 71 69 66 62 58 55 55 55 57 59 60 61 63 63 62 66 75 80 83 86 88 91 94 96 97 96 92 86 78 72 73 71 66 59 50 42 38 38 40 39 37 33 28 28
103 100 97 95 94 93 92 92 92 92 92 93 93 93 93 91 87 84 80 78 75 72 70 68 67 66 64 61 61 60 59 57 55 55 56 57 60 63 64 61 66 76 82 86 88 91 94 97 98 97 95 89 81 71 64 63 58 50 44 35 26 20 17 19 20 21 18 16 26
107 105 102 99 98 98 98 96 94 94 94 94 94 93 91 89 87 85 84 82 79 75 70 67 65 64 61 57 58 59 60 59 57 55 54 55 59 63 65 65 71 81 86 90 93 96 97 99 98 96 92 83 70 60 58 60 53 45 37 30 21 11 5 1 359 354 348 344 7
112 110 108 105 104 102 101 99 97 95 94 94 93 91 88 85 84 83 85 85 82 79 75 71 69 67 65 61 58 57 57 58 58 57 54 53 56 62 66 65 69 86 94 97 98 99 100 100 99 96 90 75 61 54 54 56 52 43 36 30 18 4 355 351 348 342 335 326 317
116 114 113 110 108 106 103 101 98 95 94 93 92 89 88 84 82 82 84 86 85 83 81 77 76 74 71 68 63 55 50 51 58 59 56 50 53 58 59 44 40 82 97 101 102 102 102 103 102 99 91 72 61 57 56 55 49 42 34 27 8 351 342 342 340 339 333 321 298
119 116 115 112 110 108 104 101 99 97 96 95 92 91 89 87 85 84 84 88 90 92 91 88 85 82 79 76 68 56 44 39 52 59 59 46 46 54 55 23 349 32 89 105 107 107 106 107 108 107 103 87 79 74 70 64 53 41 31 18 357 341 335 338 340 340 334 325 324
116 114 112 110 109 107 104 102 101 100 100 98 95 92 90 89 88 87 87 88 93 98 101 100 97 92 89 84 74 60 44 31 40 53 59 43 22 57 79 62 331 329 4 108 112 112 112 111 113 114 112 101 101 96 90 80 63 45 27 11 355 344 339 339 343 342 337 332 344
107 106 105 105 105 104 103 102 102 102 102 101 98 96 95 95 95 93 91 89 90 96 102 104 102 98 92 83 76 68 55 35 28 34 43 29 344 28 64 84 321 312 317 105 114 114 113 113 117 119 118 107 109 106 100 90 71 48 25 8 359 350 342 337 341 342 339 335 343
103 102 101 102 102 103 103 104 104 103 103 102 102 103 103 103 101 100 98 97 94 98 101 103 100 91 80 71 71 71 67 50 25 11 5 359 352 7 25 42 322 308 308 331 103 107 110 113 120 124 126 121 115 107 97 88 74 53 27 2 1 355 348 339 340 341 340 337 336